Location: Eichenhausen
(50.3245°N, 10.3042°E)
Time: 22:05:41
(UTC+00:00)

Daily predictions for brighter satellites

Satellite Brightness Start Highest point End
(mag) Time Altitude Azimuth Time Altitude Azimuth Time Altitude Azimuth
Cosmos 1174 3.9 16:15:15 10° NNW 16:18:40 48° NE 16:22:44 10° SE
SJ-6F 4.3 16:16:30 10° SSE 16:20:29 75° ENE 16:24:32 10° N
Cosmos 1300 4.2 16:17:43 10° NNW 16:20:50 36° W 16:23:56 10° SSW
Cosmos 1933 Rocket 3.9 16:17:18 10° NNW 16:21:43 73° W 16:26:08 10° S
IGS 5A 3.9 16:18:40 10° SE 16:22:22 37° ENE 16:26:05 10° N
Cosmos 2322 Rocket 3.4 16:18:44 10° WSW 16:23:55 37° NW 16:29:10 10° NNE
Cosmos 292 Rocket 4.3 16:19:14 10° NNW 16:23:58 65° WSW 16:28:38 10° S
Cosmos 1869 Rocket 3.6 16:19:58 10° N 16:24:25 78° E 16:28:52 10° SSE
Meteor 1-16 Rocket 4.3 16:21:19 10° N 16:26:38 51° ENE 16:32:04 10° SSE
Cosmos 2360 Rocket 3.3 16:21:33 10° WSW 16:26:54 42° NW 16:32:17 10° NNE
JB-3 4.2 16:23:49 10° NNE 16:27:40 65° E 16:31:27 10° S
AQUARIUS 4.3 16:23:29 10° SE 16:27:46 51° ENE 16:32:04 10° N
BREEZE-M TANK 3.8 16:26:38 10° W 16:30:10 41° S 16:34:39 10° ESE
Cosmos 2344 3.7 16:23:28 10° SSW 16:30:55 56° ESE 16:38:00 10° NE
SL-16 R/B 4.0 16:29:34 10° W 16:34:11 25° NW 16:38:48 10° NNE
Cosmos 1707 Rocket 4.4 16:33:09 10° SSE 16:37:04 31° E 16:41:00 10° NNE
Cosmos 1937 Rocket 4.2 16:32:39 10° N 16:37:15 31° NE 16:41:49 10° ESE
Okean 3 4.1 16:33:37 10° SSE 16:37:17 32° E 16:40:58 10° NNE
ASTEX 1 3.8 16:33:35 10° S 16:38:24 70° W 16:43:16 10° N
Meteor 1-31 Rocket 3.9 16:36:51 10° ESE 16:39:26 19° ENE 16:42:02 10° NNE
Okean 2 4.2 16:38:18 10° SSE 16:41:41 28° E 16:45:05 10° NNE
CZ-2D R/B 4.5 16:40:05 10° S 16:43:20 41° W 16:46:37 10° NNW
Cosmos 1943 Rocket 2.2 16:39:02 10° NNW 16:44:43 68° ENE 16:50:19 10° SE
ARIANE 5 R/B 4.2 16:41:19 10° SSW 16:46:12 40° W 16:51:06 10° NNW
CZ-2C R/B 4.1 16:48:33 14° ENE 16:49:04 14° ENE 16:50:54 10° NNE
Cosmos 2237 Rocket 2.7 16:45:22 10° S 16:50:38 40° ESE 16:55:56 10° NE
RESURS DK-1 2.2 16:47:40 10° NNW 16:51:41 64° ENE 16:55:41 10° SE
Tsikada Rocket 4.2 16:48:39 10° SSW 16:54:47 74° WNW 17:00:59 10° N
Cosmos 1862 Rocket 3.9 16:50:47 10° SSE 16:54:53 42° E 16:59:03 10° NNE
BlueWalker 3 2.0 16:53:30 10° WNW 16:57:08 57° N 16:59:51 16° E
Cosmos 1455 3.0 16:54:54 10° NNW 16:58:00 45° W 17:01:05 10° S
BREEZE-M DEB (TANK) 2.0 16:56:01 10° SW 16:58:13 40° SSE 17:00:09 17° E
Cosmos 2278 Rocket 2.4 16:53:07 10° NNW 16:58:49 79° WSW 17:04:28 10° SSE
COSMO-SKYMED 1 3.2 16:56:40 10° NNE 17:00:43 36° E 17:04:43 10° SSE
NOAA 6 4.4 16:56:35 10° SE 17:01:20 41° ENE 17:06:08 10° N
SJ-7 4.3 16:57:55 10° SSE 17:01:42 81° WSW 17:05:33 10° NNW
Cosmos 2219 Rocket 3.3 16:56:43 10° WSW 17:01:58 40° NW 17:07:16 10° NNE
ARGOS Delta rocket 3.9 16:57:42 10° S 17:02:20 74° WSW 17:06:49 10° NNW
ISS -2.8 17:01:10 10° SW 17:04:15 35° SSE 17:06:06 19° E
CZ-4B R/B 4.2 17:01:03 10° SE 17:04:16 32° ENE 17:07:29 10° N
Cosmos 2180 Rocket 4.5 16:58:23 10° N 17:04:42 69° ENE 17:10:53 10° SSE
CZ-4C R/B 2.7 17:01:08 10° S 17:04:59 31° ESE 17:08:01 17° ENE
Nadezhda 4 Rocket 4.3 17:02:57 10° SSE 17:08:38 42° E 17:14:22 10° NNE
Meteor 1-21 4.3 17:03:41 10° SSW 17:09:17 81° WNW 17:14:59 10° N
USA 306 2.3 17:10:08 10° WNW 17:12:15 36° NNE 17:12:55 30° NE
Cosmos 1763 Rocket 3.6 17:07:22 10° SSW 17:12:35 81° WNW 17:17:45 10° NNE
YAOGAN 1 2.9 17:09:20 10° SE 17:13:18 39° ENE 17:17:19 10° N
Cosmos 1733 Rocket 3.1 17:09:48 10° N 17:14:13 85° WSW 17:18:38 10° S
ATLAS 5 CENTAUR R/B 2.8 17:12:54 10° SSE 17:14:21 14° ESE 17:14:21 14° ESE
Cosmos 540 Rocket 3.4 17:13:09 10° SSW 17:18:17 90° WSW 17:23:27 10° NNE
Landsat 7 3.7 17:14:45 10° SSE 17:19:25 71° ENE 17:24:07 10° N
SPOT 1/Viking Rocket 4.0 17:16:28 10° SE 17:21:11 37° ENE 17:25:53 10° N
Cosmos 2322 4.4 17:15:40 10° SW 17:21:15 52° NW 17:26:52 10° NNE
USA 215 3.6 17:16:12 17° ENE 17:21:16 58° NNW 17:27:39 10° W
Cosmos 468 Rocket 3.9 17:17:00 10° SSW 17:22:11 78° ESE 17:27:14 11° NNE
Cosmos 1703 Rocket 4.4 17:19:57 10° SSE 17:23:46 29° E 17:25:04 24° ENE
Cosmos 2228 Rocket 3.1 17:21:16 10° S 17:25:48 90° ENE 17:30:24 10° N
Cosmos 2279 Rocket 4.4 17:20:07 10° NNW 17:26:15 66° W 17:32:21 10° S
Resurs 1-3 4.1 17:25:00 10° SE 17:28:57 36° ENE 17:32:55 10° N
Cosmos 1656 Rocket 3.9 17:24:04 10° NNW 17:29:18 44° NE 17:33:23 16° ESE
Cosmos 1898 Rocket 3.5 17:24:04 10° NNW 17:29:24 86° WSW 17:34:42 10° SSE
Cosmos 841 Rocket 3.7 17:26:38 10° S 17:31:40 49° ESE 17:34:59 21° NE
Cosmos 1703 3.6 17:33:40 10° SSE 17:36:27 35° ESE 17:36:27 35° ESE
Okean 1-7 2.9 17:35:13 10° S 17:39:28 70° E 17:43:22 12° NNE
SL-16 R/B 2.9 17:35:03 10° SSE 17:39:57 31° ESE 17:40:55 29° E
Cosmos 1980 3.7 17:34:38 10° SSW 17:40:18 87° WNW 17:44:57 16° NNE
Cosmos 1953 3.7 17:39:29 10° NNW 17:42:57 37° W 17:46:23 10° SSW
SKYMED 2 3.6 17:44:30 10° NNE 17:48:52 79° WNW 17:53:12 10° SSW
ADEOS 4.1 17:48:47 35° E 17:49:26 36° ENE 17:54:11 10° N
NOSS 0 Rocket 4.3 17:44:16 10° SW 17:50:22 64° NW 17:55:40 14° NNE
Cosmos 1818 3.5 17:46:58 10° NW 17:52:29 82° NE 17:56:19 20° SE
ATLAS 2AS CENTAUR R/B 2.5 17:47:18 10° NW 17:54:10 78° NE 17:59:05 20° SE
Cosmos 1092 Rocket 4.1 17:48:37 10° SSE 17:54:30 48° E 18:00:27 10° NNE
Resurs 01 Rocket 3.6 17:57:26 15° NNE 17:57:26 15° NNE 17:58:20 10° N
Cosmos 2369 Rocket 2.4 17:50:01 10° NNW 17:55:26 47° NE 17:56:55 38° E
ACS3 Solar Sail 2.0 17:49:55 10° S 17:56:19 81° WSW 18:02:45 10° NNW
COSMOS 2428 4.0 17:52:36 10° WSW 17:57:51 37° NW 18:02:53 11° NNE
Cosmos 2333 Rocket 4.5 17:57:00 10° WNW 18:00:16 15° NNW 18:03:32 10° N
BREEZE-M DEB (TANK) 2.8 17:59:40 10° W 18:06:56 84° S 18:07:22 68° ESE
Cosmos 1908 Rocket 3.6 18:02:56 10° NNW 18:07:17 75° W 18:11:35 10° S
Meteor 2-12 Rocket 4.3 18:05:46 10° S 18:11:50 78° E 18:17:58 10° NNE
CZ-4B DEB 4.3 18:12:01 50° E 18:12:36 52° ENE 18:17:56 10° N
Meteor 1-31 Rocket 4.0 18:09:22 10° S 18:12:43 39° W 18:16:07 10° NNW
EO 1 Delta rocket 4.3 18:08:07 10° N 18:12:50 59° WNW 18:17:23 10° SSW
Cosmos 1627 Rocket 4.4 18:11:11 10° S 18:17:31 72° E 18:23:54 10° NNE
Cosmos 2297 3.6 18:12:49 10° NNW 18:18:35 74° ENE 18:20:18 46° SE
Cosmos 1937 Rocket 4.5 18:14:23 10° NW 18:19:19 46° WSW 18:24:14 10° S
Cosmos 2263 4.3 18:13:53 10° NNW 18:19:28 53° NE 18:19:34 53° ENE
CZ-2C R/B 3.6 18:22:18 40° WNW 18:22:18 40° WNW 18:24:50 10° NNW
Cosmos 2026 Rocket 3.9 18:16:51 10° S 18:23:13 80° E 18:29:36 10° NNE
Cosmos 1932 4.3 18:18:46 10° SSW 18:24:52 65° SE 18:25:50 57° E
BREEZE-M DEB (TANK) 3.1 18:16:39 10° WSW 18:28:22 72° S 18:28:56 65° ESE
Cosmos 2237 Rocket 3.2 18:29:16 10° WSW 18:34:41 43° NW 18:37:58 22° N
BlueWalker 3 3.2 18:31:22 10° WNW 18:33:53 38° W 18:33:53 38° W
COSMO-SKYMED 1 4.4 18:33:01 10° N 18:36:47 29° WNW 18:40:31 10° SW
ISS -1.5 18:37:29 10° W 18:39:01 25° W 18:39:01 25° W
Cosmos 2344 4.2 18:38:27 10° WSW 18:45:27 46° NNW 18:48:48 30° NNE
CZ-4C R/B 2.5 18:48:19 10° WSW 18:52:53 54° NW 18:53:04 53° NNW
ATLAS 5 CENTAUR R/B 3.9 18:54:13 10° WSW 18:54:38 13° WSW 18:54:38 13° WSW
Meteor 1-24 Rocket 3.8 18:52:22 10° SSW 18:58:08 83° WSW 18:58:08 83° WSW
USA 215 3.6 19:03:33 51° NNE 19:03:47 51° N 19:10:03 10° WNW
Meteor 2-5 Rocket 4.2 19:03:11 10° SSW 19:07:38 54° SW 19:07:38 54° SW
SL-16 R/B 3.0 19:18:14 10° SW 19:22:50 48° W 19:22:50 48° W
Cosmos 1553 Rocket 4.4 19:17:59 10° NNW 19:23:51 58° W 19:23:51 58° W
Cosmos 2369 Rocket 3.6 19:34:17 10° NW 19:38:45 34° W 19:38:45 34° W
ACS3 Solar Sail 4.4 19:36:57 10° WSW 19:40:51 17° W 19:44:47 10° NW
ATLAS 2AS CENTAUR R/B 4.2 19:38:52 10° WNW 19:44:27 28° WSW 19:46:36 23° SW
